Weather History for KVGT - January, 2013

Change the Weather History Date:

Tuesday, January 8, 2013

  Actual Average Record
Temperature  
Mean Temperature 55 °F -  
Max Temperature 64 °F 56 °F 70 °F (1956)
Min Temperature 46 °F 35 °F 12 °F (1952)
Degree Days  
Heating Degree Days 10    
Growing Degree Days 5 (Base 50)    
Moisture  
Dew Point 24 °F    
Average Humidity 31    
Maximum Humidity 44    
Minimum Humidity 23    
Precipitation  
Precipitation 0.00 in - - ()
Sea Level Pressure  
Sea Level Pressure 30.20 in    
Wind  
Wind Speed 9 mph (North)    
Max Wind Speed 17 mph    
Max Gust Speed 28 mph    
Visibility 10 miles    
Events      
Averages and records for this station are not official NWS values.
T = Trace of Precipitation, MM = Missing Value Source: NWS Daily Summary

Daily Weather History Graph

Daily Weather History Graph

Search for Another Location

Airport or City:

Trip Planner

Search our weather history database for the weather conditions in past years. The results will help you decide how hot, cold, wet, or windy it might be!

Date:

Astronomy

Jan. 08, 2013 Rise Set
Actual Time 6:52 AM PST 4:43 PM PST
Civil Twilight 6:24 AM PST 5:11 PM PST
Nautical Twilight 5:52 AM PST 5:43 PM PST
Astronomical Twilight 5:21 AM PST 6:14 PM PST
Moon 3:30 AM PST (1/8) 1:49 PM PST (1/8)
Length of Visible Light 10h 47m
Length of Day
9h 50m
Waning Crescent, 13% of the Moon is Illuminated
Jan 8
Waning Crescent
Jan 11
New
Jan 18
First Quarter
Jan 26
Full
Feb 3
Last Quarter

Hourly Weather History & Observations

Time (PST) Temp. Dew Point Humidity Pressure Visibility Wind Dir Wind Speed Gust Speed Precip Events Conditions
12:53 AM 46.9 °F 12.0 °F 24% 30.11 in 10.0 mi NW 9.2 mph 16.1 mph N/A   Clear
1:53 AM 50.0 °F 12.9 °F 23% 30.12 in 10.0 mi North 9.2 mph - N/A   Clear
2:53 AM 48.0 °F 14.0 °F 26% 30.12 in 10.0 mi NNE 5.8 mph - N/A   Clear
3:53 AM 46.9 °F 16.0 °F 29% 30.12 in 10.0 mi NNW 11.5 mph - N/A   Clear
4:53 AM 46.9 °F 18.0 °F 32% 30.12 in 10.0 mi NNW 10.4 mph - N/A   Clear
5:53 AM 46.9 °F 19.9 °F 34% 30.17 in 10.0 mi North 10.4 mph - N/A   Clear
6:53 AM 48.9 °F 24.1 °F 38% 30.17 in 10.0 mi NNE 15.0 mph 27.6 mph N/A   Clear
7:53 AM 48.0 °F 24.1 °F 39% 30.22 in 10.0 mi North 8.1 mph - N/A   Clear
8:53 AM 52.0 °F 25.0 °F 35% 30.22 in 10.0 mi NNW 17.3 mph - N/A   Clear
9:53 AM 55.0 °F 25.0 °F 31% 30.24 in 10.0 mi ENE 9.2 mph 23.0 mph N/A   Clear
10:53 AM 57.9 °F 26.1 °F 30% 30.22 in 10.0 mi ENE 10.4 mph - N/A   Clear
11:53 AM 61.0 °F 26.1 °F 26% 30.19 in 10.0 mi East 6.9 mph - N/A   Clear
12:53 PM 62.1 °F 26.1 °F 25% 30.17 in 10.0 mi East 5.8 mph - N/A   Clear
1:53 PM 64.9 °F 26.1 °F 23% 30.16 in 10.0 mi Calm Calm - N/A   Clear
2:53 PM 64.9 °F 26.1 °F 23% 30.17 in 10.0 mi North 11.5 mph - N/A   Clear
3:53 PM 64.0 °F 26.1 °F 24% 30.18 in 10.0 mi NNW 9.2 mph - N/A   Clear
4:53 PM 61.0 °F 27.0 °F 27% 30.19 in 10.0 mi North 6.9 mph - N/A   Clear
5:53 PM 59.0 °F 27.0 °F 29% 30.21 in 10.0 mi North 9.2 mph - N/A   Clear
6:53 PM 57.0 °F 27.0 °F 32% 30.22 in 10.0 mi NNW 8.1 mph - N/A   Clear
7:53 PM 55.9 °F 28.0 °F 34% 30.25 in 10.0 mi North 6.9 mph - N/A   Clear
8:53 PM 54.0 °F 28.0 °F 37% 30.27 in 10.0 mi NE 3.5 mph - N/A   Clear
9:53 PM 54.0 °F 28.0 °F 37% 30.27 in 10.0 mi North 8.1 mph - N/A   Clear
10:53 PM 50.0 °F 28.0 °F 43% 30.29 in 10.0 mi Calm Calm - N/A   Clear
11:53 PM 48.9 °F 28.0 °F 44% 30.28 in 10.0 mi NW 11.5 mph - N/A   Clear